Location: Consuma
(43.7833°N, 11.5833°E)
Time: 05:09:02
(UTC+00:00)

Cosmos 1727 Rocket - Pass Details

Date: 17 February 2020
Orbit: 962 x 996 km, 82.9° (Epoch: 29 March)

Event Time Altitude Azimuth Distance (km) Brightness Sun altitude
Rises 04:29:39 0° 194° (SSW) 3,652 6.9 -18.8°
Reaches altitude 10° 04:32:10 10° 196° (SSW) 2,704 6.1 -18.4°
Maximum altitude 04:38:19 68° 280° (W) 1,035 3.9 -17.3°
Drops below altitude 10° 04:44:30 10° 3° (N) 2,708 6.3 -16.2°
Sets 04:47:02 0° 6° (N) 3,658 7.1 -15.7°
